Location: Pasadena-CA
(34.1440°N, 118.1100°W)
Time: 06:21:56
(UTC-07:00)

NOAA 19 - Pass Details

Date: 27 June 2022
Orbit: 840 x 861 km, 99.1° (Epoch: 15 August)

Event Time Altitude Azimuth Distance (km) Brightness Sun altitude
Rises 21:30:56 0° 210° (SSW) 3,420 8.2 -14.8°
Reaches altitude 10° 21:34:24 10° 232° (SW) 2,487 7.8 -15.3°
Maximum altitude 21:37:27 15° 267° (W) 2,147 7.9 -15.7°
Drops below altitude 10° 21:40:32 10° 301° (WNW) 2,489 8.9 -16.2°
Sets 21:44:02 0° 324° (NW) 3,426 10.1 -16.7°
